Cosmos 2084 Rocket - Orbit

View from above orbital plane
View from above orbital plane
View from above satellite
View from above satellite

Ground track
Ground track

The orbit data is extracted from the following two-line orbital elements,

1 20666U 90055D   13137.86659886  .00000942  00000-0  11792-3 0  8627
2 20666 062.7894 076.5503 0046192 205.6195 154.2609 14.88568227238881
Epoch (UTC): 17 May 2013 20:47:54
Eccentricity: 0.0046192
inclination: 62.7894°
perigee height: 570 km
apogee height: 634 km
right ascension of ascending node: 76.5503°
argument of perigee: 205.6195°
revolutions per day: 14.88568227
mean anomaly at epoch: 154.2609°
orbit number at epoch: 23888

The dashed part of the orbit path shows where the satellite is in the earth's shadow,  

Developed and maintained by Chris Peat, Heavens-Above GmbH. Please read the updated FAQ before sending e-mail. Imprint. DLR